Weather History for Ogden, UT

Change the Weather History Date:

Sunday, October 23, 2011

  Actual Average Record
Temperature  
Mean Temperature 55 °F -  
Max Temperature 69 °F 63 °F 81 °F (1940)
Min Temperature 42 °F 36 °F 23 °F (1945)
Degree Days  
Heating Degree Days 10    
Growing Degree Days 5 (Base 50)    
Moisture  
Dew Point 33 °F    
Average Humidity 49    
Maximum Humidity 65    
Minimum Humidity 26    
Precipitation  
Precipitation 0.00 in - - ()
Sea Level Pressure  
Sea Level Pressure 30.15 in    
Wind  
Wind Speed 7 mph (South)    
Max Wind Speed 10 mph    
Max Gust Speed -    
Visibility 10 miles    
Events      
Averages and records for this station are not official NWS values.
T = Trace of Precipitation, MM = Missing Value Source: NWS Daily Summary

Daily Weather History Graph

Daily Weather History Graph

Search for Another Location

Airport:

Trip Planner

Search our weather history database for the weather conditions in past years. The results will help you decide how hot, cold, wet, or windy it might be!

Date:

Astronomy

Oct. 23, 2011 Rise Set
Actual Time 7:48 AM MDT 6:35 PM MDT
Civil Twilight 7:20 AM MDT 7:03 PM MDT
Nautical Twilight 6:48 AM MDT 7:35 PM MDT
Astronomical Twilight 6:16 AM MDT 8:07 PM MDT
Moon 3:57 AM MDT (10/23) 4:30 PM MDT (10/23)
Length of Visible Light 11h 43m
Length of Day
10h 47m
Waning Crescent, 14% of the Moon is Illuminated
Oct 23
Waning Crescent
Oct 26
New
Nov 2
First Quarter
Nov 10
Full
Nov 18
Last Quarter

Hourly Weather History & Observations

Time (MDT) Temp. Windchill Dew Point Humidity Pressure Visibility Wind Dir Wind Speed Gust Speed Precip Events Conditions
12:53 AM 46.0 °F 41.4 °F 32.0 °F 58% 30.21 in 10.0 mi South 9.2 mph - N/A   Clear
1:53 AM 45.0 °F 39.7 °F 32.0 °F 60% 30.22 in 10.0 mi South 10.4 mph - N/A   Clear
2:53 AM 45.0 °F 40.6 °F 30.9 °F 58% 30.22 in 10.0 mi South 8.1 mph - N/A   Clear
3:53 AM 43.0 °F 38.2 °F 30.9 °F 62% 30.20 in 10.0 mi South 8.1 mph - N/A   Clear
4:53 AM 44.1 °F 39.5 °F 30.9 °F 60% 30.20 in 10.0 mi South 8.1 mph - N/A   Clear
5:53 AM 44.1 °F 39.0 °F 30.9 °F 60% 30.20 in 10.0 mi South 9.2 mph - N/A   Clear
6:53 AM 43.0 °F 38.8 °F 30.9 °F 62% 30.21 in 10.0 mi South 6.9 mph - N/A   Clear
7:53 AM 42.1 °F 37.1 °F 30.9 °F 65% 30.23 in 10.0 mi South 8.1 mph - N/A   Clear
8:53 AM 45.0 °F 40.6 °F 32.0 °F 60% 30.24 in 10.0 mi South 8.1 mph - N/A   Clear
9:53 AM 50.0 °F - 33.1 °F 52% 30.23 in 10.0 mi South 5.8 mph - N/A   Clear
12:53 PM 63.0 °F - 34.0 °F 34% 30.19 in 10.0 mi Calm Calm - N/A   Clear
1:53 PM 66.0 °F - 34.0 °F 30% 30.14 in 10.0 mi Calm Calm - N/A   Clear
2:53 PM 66.0 °F - 34.0 °F 30% 30.12 in 10.0 mi Calm Calm - N/A   Clear
3:53 PM 68.0 °F - 32.0 °F 26% 30.09 in 10.0 mi Calm Calm - N/A   Clear
4:53 PM 68.0 °F - 33.1 °F 27% 30.07 in 10.0 mi NW 3.5 mph - N/A   Clear
5:53 PM 64.0 °F - 36.0 °F 35% 30.07 in 10.0 mi Calm Calm - N/A   Clear
6:53 PM 57.9 °F - 35.1 °F 42% 30.08 in 10.0 mi Calm Calm - N/A   Clear
7:53 PM 55.0 °F - 37.9 °F 53% 30.08 in 8.0 mi Calm Calm - N/A   Clear
8:53 PM 52.0 °F - 37.0 °F 57% 30.08 in 10.0 mi South 6.9 mph - N/A   Clear
9:53 PM 52.0 °F - 35.1 °F 53% 30.06 in 10.0 mi South 10.4 mph - N/A   Clear
10:53 PM 51.1 °F - 34.0 °F 52% 30.04 in 10.0 mi South 8.1 mph - N/A   Clear
11:53 PM 51.1 °F - 33.1 °F 50% 30.02 in 10.0 mi South 10.4 mph - N/A   Clear